Location: Caltech
(34.1382°N, 118.1253°W)
Time: 08:20:59
(UTC-07:00)

Iridium 59 - Visible Passes

Search period start: 24 July 2014 00:00
Search period end: 03 August 2014 00:00
Orbit: 776 x 779 km, 86.4° (Epoch: 24 July)

Date Brightness Start Highest point End Pass type
(mag) Time Alt. Az. Time Alt. Az. Time Alt. Az.
24 Jul 5.4 05:16:48 10° S 05:21:58 70° E 05:27:08 10° N visible
25 Jul 6.7 04:43:53 10° SSE 04:48:34 35° E 04:53:16 10° NNE visible
26 Jul 7.6 04:11:48 10° SE 04:15:17 18° E 04:18:47 10° NE visible
27 Jul 5.0 05:16:51 10° S 05:22:02 79° W 05:27:16 10° N visible
28 Jul 5.8 04:43:33 10° SSE 04:48:35 53° E 04:53:38 10° NNE visible
29 Jul 7.0 04:10:55 10° SE 04:15:14 27° E 04:19:33 10° NNE visible
30 Jul 7.7 03:39:22 10° ESE 03:42:00 14° E 03:44:37 10° NE visible
30 Jul 5.2 05:17:06 10° SSW 05:22:10 52° W 05:27:15 10° N visible
31 Jul 5.1 04:43:27 10° S 04:48:38 80° E 04:53:51 10° N visible
01 Aug 6.2 04:10:23 10° SSE 04:15:13 40° E 04:20:03 10° NNE visible
02 Aug 7.3 03:38:05 10° SE 03:41:55 21° E 03:45:44 10° NE visible
02 Aug 5.7 05:17:37 10° SSW 05:22:19 35° W 05:27:04 10° NNW visible
